[[{"header":{"parameterUnit":"m.s-1","parameterCategory":1,"la1":30.2991,"la2":30.254,"lo1":-89.0895,"lo2":-89.0444,"dy":0.0017,"dx":0.0017,"nx":28,"ny":28,"refTime":"2024-12-20T03:00:00:Z","depth":0,"parameterNumber":2,"parameterNumberName":"U-component_of_WINDS"},"data":[0,0,0,0,0,0,0,0,0,0,0,0,0,0,0,0,0,0,0,0,0,0,0,0,0,0,0,0,0,0,0,0,0,0,0,0,0,0,0,0,0,0,0,0,0,0,0,0,0,0,0,0,0,0,0,0,0,0,-1.5957,-1.5958,0,-1.5999,-1.5999,-1.6,-1.5941,-1.5939,-1.5936,-1.5934,-1.5979,-1.5982,-1.5985,0,0,0,0,0,0,0,0,0,0,0,0,0,-1.5828,-1.5831,-1.5957,-1.5958,-1.5958,-1.5999,-1.5999,-1.6,-1.5941,-1.5938,-1.5936,-1.5934,-1.5978,-1.5981,-1.5985,0,0,0,0,0,0,0,0,0,0,0,0,0,-1.5878,-1.5832,-1.5957,-1.5934,-1.5932,-1.5999,-1.5999,-1.6,-1.5942,-1.5938,-1.5935,-1.5932,-1.5977,-1.5981,-1.5986,-1.6078,0,0,-1.6,-1.6002,0,0,0,0,0,0,0,0,-1.5876,-1.5883,-1.5937,-1.5935,-1.5934,-1.5961,-1.597,-1.6026,-1.5942,-1.5938,-1.5934,-1.5931,-1.5976,-1.598,-1.5995,-1.608,-1.6082,-1.6001,-1.6003,-1.6005,-1.6007,0,0,0,0,0,0,0,-1.5872,-1.5881,-1.5974,-1.5938,-1.5936,-1.5922,-1.5925,-1.598,-1.5974,-1.5938,-1.5934,-1.594,-1.5974,-1.5991,-1.5996,-1.6082,-1.6,-1.6005,-1.6007,-1.6009,-1.6246,-1.6249,0,0,0,0,0,0,-1.5871,-1.5879,-1.5972,-1.5975,-1.5896,-1.5926,-1.5931,-1.5956,-1.5973,-1.5973,-1.5942,-1.5937,-1.5984,-1.599,-1.5997,-1.6107,-1.6005,-1.601,-1.6012,-1.6242,-1.6246,-1.625,0,0,0,0,0,0,-1.5869,-1.588,-1.5971,-1.5926,-1.5936,-1.5932,-1.5961,-1.5958,-1.5974,-1.5976,-1.5975,-1.596,-1.5982,-1.599,-1.6058,-1.6108,-1.6012,-1.6016,-1.6238,-1.6243,-1.6248,-1.6328,0,0,0,0,0,0,-1.5865,-1.588,-1.5915,-1.5927,-1.5939,-1.6031,-1.5964,-1.5961,-1.5983,-1.5976,-1.5993,-1.5993,-1.598,-1.6052,-1.6063,-1.6113,-1.602,-1.6234,-1.624,-1.6247,-1.6321,-1.6335,-1.6347,0,0,0,0,0,-1.5861,-1.5935,-1.5917,-1.5928,-1.5982,-1.6034,-1.6041,-1.6025,-1.5987,-1.6022,-1.6023,-1.5992,-1.61,-1.6059,-1.6071,-1.6123,-1.6231,-1.6239,-1.6246,-1.6315,-1.6332,-1.6347,0,0,0,0,0,0,-1.593,-1.5937,-1.5916,-1.5996,-1.6015,-1.6024,-1.6068,-1.6044,-1.6074,-1.6066,-1.6045,-1.6049,-1.6122,-1.6129,-1.6083,-1.6213,-1.6159,-1.617,-1.6207,-1.6223,-1.6236,-1.6234,-1.6024,0,0,0,0,0,-1.5954,-1.5996,-1.5999,-1.607,-1.608,-1.6073,-1.6095,-1.608,-1.6099,-1.6107,-1.6113,-1.6133,-1.6171,-1.6197,-1.6232,-1.632,-1.6324,-1.6362,-1.6375,-1.6386,-1.6396,-1.6444,-1.6461,-1.6276,-1.6276,-1.6275,0,0,-1.6006,-1.6014,-1.6042,-1.6084,-1.6097,-1.6141,-1.608,-1.6129,-1.6162,-1.6115,-1.618,-1.6185,-1.6205,-1.6284,-1.6319,-1.6292,-1.6448,-1.6396,-1.6404,-1.6409,-1.6454,-1.6471,-1.6487,-1.6281,-1.628,-1.6279,0,0,-1.6122,-1.6132,-1.6193,-1.6206,-1.6226,-1.6221,-1.6235,-1.6248,-1.6249,-1.6314,-1.6279,-1.6318,-1.6384,-1.64,-1.6418,-1.6539,-1.6512,-1.6551,-1.6621,-1.6668,-1.6683,-1.6696,-1.6741,-1.6757,-1.6561,-1.6561,-1.6561,0,-1.6184,-1.6248,-1.6227,-1.6279,-1.6299,-1.6257,-1.6319,-1.6333,-1.6364,-1.6379,-1.6348,-1.643,-1.6441,-1.6523,-1.6553,-1.6567,-1.6584,-1.655,-1.6682,-1.6695,-1.6707,-1.675,-1.6767,-1.6566,-1.6565,-1.6564,-1.6564,0,-1.6324,-1.6369,-1.6416,-1.6446,-1.6471,-1.6527,-1.6515,-1.6543,-1.6526,-1.6524,-1.659,-1.6601,-1.6638,-1.6656,-1.664,-1.6737,-1.6719,-1.6685,-1.6631,-1.673,-1.677,-1.6786,-1.6572,-1.6571,-1.6569,-1.6568,0,0,-1.6487,-1.6504,-1.6522,-1.6536,-1.6554,-1.6589,-1.6643,-1.6679,-1.6704,-1.6726,-1.6772,-1.6828,-1.6797,-1.6816,-1.6801,-1.6842,-1.694,-1.6803,-1.6803,-1.683,-1.7049,-1.7076,-1.7095,-1.6921,-1.6924,-1.6926,-1.7047,0,-1.6605,-1.6699,-1.6681,-1.6774,-1.6816,-1.6776,-1.6823,-1.684,-1.6839,-1.6875,-1.6873,-1.6914,-1.6869,-1.6881,-1.6919,-1.692,-1.6984,-1.691,-1.6965,-1.6967,-1.6964,-1.7116,-1.7145,-1.7259,-1.7063,-1.7065,-1.7067,0,-1.6756,-1.6783,-1.688,-1.6892,-1.6909,-1.6952,-1.6983,-1.7017,-1.7035,-1.7032,-1.7053,-1.703,-1.7085,-1.7027,-1.7103,-1.7053,-1.7074,-1.7078,-1.7082,-1.7089,-1.7025,-1.7129,-1.7295,-1.7313,-1.7091,-1.7089,-1.7088,0,-1.6868,-1.6929,-1.6995,-1.7007,-1.7022,-1.7053,-1.7061,-1.7076,-1.7098,-1.7126,-1.714,-1.7174,-1.7193,-1.7219,-1.7206,-1.7165,-1.7285,-1.7226,-1.7284,-1.7285,-1.7314,-1.7313,-1.7488,-1.7323,-1.7323,-1.7322,-1.7322,0,-1.7003,-1.7065,-1.7046,-1.7087,-1.7154,-1.7132,-1.7199,-1.7202,-1.7215,-1.7256,-1.7223,-1.7262,-1.7241,-1.7279,-1.7269,-1.7334,-1.7342,-1.7341,-1.7339,-1.7346,-1.7347,-1.7361,-1.7354,-1.7327,-1.7326,-1.7325,-1.7324,0,-1.7142,-1.7131,-1.72,-1.7208,-1.7212,-1.7261,-1.7268,-1.7306,-1.7302,-1.7354,-1.7365,-1.7359,-1.7401,-1.739,-1.7436,-1.7429,-1.7512,-1.7498,-1.7506,-1.7504,-1.7564,-1.756,-1.7757,-1.7783,-1.7599,-1.7601,-1.7602,0,-1.723,-1.7276,-1.7288,-1.7313,-1.7324,-1.7364,-1.7387,-1.7366,-1.7392,-1.7415,-1.7451,-1.749,-1.7521,-1.7591,-1.7591,-1.7626,-1.7614,-1.7681,-1.762,-1.7626,-1.7618,-1.7617,-1.7622,-1.7694,-1.7696,-1.7698,-1.7699,0,-1.7388,-1.7381,-1.7415,-1.7447,-1.7475,-1.75,-1.7522,-1.7544,-1.7525,-1.7555,-1.7598,-1.7622,-1.7669,-1.7709,-1.7741,-1.7749,-1.7723,-1.7718,-1.7734,-1.7744,-1.7748,-1.7749,-1.7543,-1.7715,-1.7713,-1.7712,-1.7711,-1.7711,-1.7506,-1.7545,-1.7561,-1.76,-1.7613,-1.7634,-1.7671,-1.767,-1.7706,-1.7743,-1.7728,-1.7778,-1.7794,-1.7834,-1.7846,-1.7885,-1.786,-1.7883,-1.7889,-1.7895,-1.7904,-1.7739,-1.7891,-1.789,-1.789,-1.7889,-1.7889,0,-1.7665,-1.7672,-1.7708,-1.7739,-1.777,-1.774,-1.7762,-1.779,-1.7834,-1.7851,-1.7882,-1.7932,-1.797,-1.7972,-1.8008,-1.8039,-1.8028,-1.805,-1.8049,-1.8051,-1.7923,-1.7907,-1.8058,-1.8058,-1.8058,-1.8058,-1.8058,-1.8058,-1.7751,-1.7817,-1.7811,-1.7883,-1.789,-1.7938,-1.7954,-1.7973,-1.7986,-1.8043,-1.8075,-1.8075,-1.8087,-1.8123,-1.8157,-1.8157,-1.8173,-1.82,-1.8195,-1.8077,-1.806,-1.8044,-1.8029,-1.8203,-1.8203,-1.832,-1.8321,-1.8322]},{"header":{"parameterUnit":"m.s-1","parameterCategory":1,"la1":30.2991,"la2":30.254,"lo1":-89.0895,"lo2":-89.0444,"dy":0.0017,"dx":0.0017,"nx":28,"ny":28,"refTime":"2024-12-20T03:00:00:Z","depth":0,"parameterNumber":3,"parameterNumberName":"V-component_of_WINDS"},"data":[0,0,0,0,0,0,0,0,0,0,0,0,0,0,0,0,0,0,0,0,0,0,0,0,0,0,0,0,0,0,0,0,0,0,0,0,0,0,0,0,0,0,0,0,0,0,0,0,0,0,0,0,0,0,0,0,0,0,-5.7232,-5.7233,0,-5.7322,-5.7323,-5.7324,-5.7272,-5.7269,-5.7267,-5.7265,-5.7352,-5.7357,-5.7361,0,0,0,0,0,0,0,0,0,0,0,0,0,-5.701,-5.7014,-5.7232,-5.7233,-5.7234,-5.7322,-5.7324,-5.7325,-5.7272,-5.7269,-5.7266,-5.7263,-5.7351,-5.7356,-5.7362,0,0,0,0,0,0,0,0,0,0,0,0,0,-5.7104,-5.7016,-5.7232,-5.7219,-5.7219,-5.7322,-5.7324,-5.7325,-5.7273,-5.7269,-5.7265,-5.7262,-5.7349,-5.7356,-5.7363,-5.7482,0,0,-5.7384,-5.7387,0,0,0,0,0,0,0,0,-5.7098,-5.7112,-5.722,-5.722,-5.722,-5.7282,-5.7277,-5.7378,-5.7274,-5.7252,-5.7264,-5.726,-5.7332,-5.734,-5.7365,-5.7486,-5.749,-5.7385,-5.7389,-5.7392,-5.7394,0,0,0,0,0,0,0,-5.7092,-5.7108,-5.7268,-5.7221,-5.7222,-5.7207,-5.7216,-5.7296,-5.7312,-5.7254,-5.725,-5.7262,-5.7331,-5.7358,-5.7367,-5.7491,-5.7385,-5.7391,-5.7395,-5.7398,-5.7715,-5.7719,0,0,0,0,0,0,-5.7087,-5.7103,-5.7265,-5.727,-5.7149,-5.7214,-5.7225,-5.7266,-5.7311,-5.7314,-5.7265,-5.7259,-5.7348,-5.7358,-5.737,-5.7513,-5.7392,-5.7399,-5.7403,-5.7711,-5.7716,-5.7721,0,0,0,0,0,0,-5.7083,-5.7102,-5.7261,-5.7186,-5.7205,-5.7222,-5.7269,-5.727,-5.7297,-5.732,-5.7322,-5.7291,-5.7346,-5.736,-5.7455,-5.7515,-5.7402,-5.7408,-5.7706,-5.7713,-5.7719,-5.7801,0,0,0,0,0,0,-5.7076,-5.7101,-5.7147,-5.7187,-5.7209,-5.7347,-5.7273,-5.7274,-5.731,-5.7303,-5.7344,-5.7347,-5.7344,-5.7445,-5.7462,-5.7523,-5.7414,-5.7701,-5.7709,-5.7717,-5.7793,-5.781,-5.7824,0,0,0,0,0,-5.7069,-5.7166,-5.715,-5.717,-5.7268,-5.735,-5.7363,-5.7358,-5.7315,-5.7362,-5.7376,-5.7346,-5.7506,-5.7455,-5.7474,-5.7538,-5.7697,-5.7707,-5.7716,-5.7786,-5.7806,-5.7823,0,0,0,0,0,0,-5.7131,-5.7171,-5.7154,-5.7267,-5.7306,-5.7341,-5.74,-5.7379,-5.743,-5.7421,-5.7412,-5.7422,-5.7521,-5.7539,-5.7481,-5.7656,-5.7594,-5.7608,-5.7642,-5.7661,-5.7676,-5.767,-5.7419,0,0,0,0,0,-5.7158,-5.7223,-5.7254,-5.7351,-5.7371,-5.7383,-5.7418,-5.7412,-5.7451,-5.7466,-5.7488,-5.7526,-5.7584,-5.7623,-5.7678,-5.7795,-5.7803,-5.7848,-5.7864,-5.7876,-5.7888,-5.7951,-5.7972,-5.7752,-5.7752,-5.7752,0,0,-5.7215,-5.7244,-5.7286,-5.7364,-5.7394,-5.746,-5.7397,-5.7469,-5.7518,-5.7477,-5.7569,-5.7586,-5.7627,-5.7734,-5.7782,-5.7752,-5.7951,-5.7888,-5.7898,-5.7903,-5.7963,-5.7984,-5.8003,-5.7758,-5.7757,-5.7756,0,0,-5.7352,-5.7381,-5.7465,-5.7497,-5.7543,-5.7549,-5.757,-5.7609,-5.7619,-5.7712,-5.7682,-5.7739,-5.784,-5.7872,-5.7901,-5.805,-5.8024,-5.8068,-5.8148,-5.821,-5.8227,-5.8242,-5.8296,-5.8316,-5.808,-5.808,-5.808,0,-5.7416,-5.7516,-5.7511,-5.7587,-5.7622,-5.7589,-5.7674,-5.7704,-5.7765,-5.7789,-5.7755,-5.7882,-5.7907,-5.8021,-5.8058,-5.8082,-5.8105,-5.8064,-5.8225,-5.824,-5.8255,-5.8306,-5.8326,-5.8085,-5.8085,-5.8084,-5.8083,0,-5.7593,-5.7663,-5.7725,-5.7788,-5.783,-5.7909,-5.7915,-5.7958,-5.7947,-5.7958,-5.8052,-5.8082,-5.8143,-5.8169,-5.8158,-5.8282,-5.8262,-5.8226,-5.8164,-5.8281,-5.8329,-5.8349,-5.8092,-5.8091,-5.8089,-5.8088,0,0,-5.7772,-5.7831,-5.7854,-5.7882,-5.7931,-5.7984,-5.8062,-5.8123,-5.8161,-5.8203,-5.8268,-5.8355,-5.8323,-5.8356,-5.8349,-5.8403,-5.852,-5.8361,-5.8362,-5.839,-5.8658,-5.8685,-5.8708,-5.8503,-5.8507,-5.851,-5.8655,0,-5.7913,-5.8052,-5.8049,-5.8177,-5.8242,-5.8212,-5.8279,-5.8316,-5.8327,-5.8382,-5.8394,-5.8456,-5.8409,-5.8429,-5.8481,-5.8495,-5.8574,-5.8484,-5.8563,-5.8566,-5.8555,-5.8733,-5.8762,-5.8898,-5.8674,-5.8677,-5.8679,0,-5.8096,-5.8148,-5.8283,-5.8323,-5.835,-5.8411,-5.8467,-5.8521,-5.8561,-5.8565,-5.8603,-5.8587,-5.8665,-5.86,-5.8707,-5.8646,-5.8678,-5.8689,-5.8694,-5.8702,-5.863,-5.8747,-5.8941,-5.8962,-5.8709,-5.8706,-5.8704,0,-5.8215,-5.8317,-5.8412,-5.8437,-5.8485,-5.8529,-5.8551,-5.8587,-5.8625,-5.8673,-5.8697,-5.8753,-5.8784,-5.8827,-5.8827,-5.878,-5.8935,-5.887,-5.894,-5.8941,-5.8975,-5.8973,-5.9178,-5.8994,-5.8994,-5.8994,-5.8993,0,-5.8373,-5.8457,-5.8466,-5.8524,-5.8617,-5.8613,-5.8704,-5.8721,-5.8754,-5.8814,-5.879,-5.8847,-5.8842,-5.8899,-5.8898,-5.8987,-5.9001,-5.9006,-5.9005,-5.9009,-5.9008,-5.903,-5.9021,-5.8999,-5.8998,-5.8997,-5.8996,0,-5.8522,-5.8531,-5.8632,-5.867,-5.8682,-5.8749,-5.878,-5.8835,-5.8844,-5.892,-5.8938,-5.8952,-5.9017,-5.9021,-5.9096,-5.9095,-5.9204,-5.9192,-5.9191,-5.9189,-5.926,-5.9254,-5.9487,-5.9517,-5.9312,-5.9314,-5.9316,0,-5.8623,-5.8687,-5.8732,-5.8772,-5.8797,-5.8861,-5.8899,-5.8897,-5.8937,-5.8988,-5.9037,-5.91,-5.9151,-5.9257,-5.9273,-5.933,-5.932,-5.9397,-5.9328,-5.933,-5.9322,-5.9319,-5.9325,-5.9411,-5.9413,-5.9415,-5.9417,0,-5.8801,-5.8803,-5.886,-5.892,-5.8967,-5.9014,-5.9056,-5.909,-5.9092,-5.9139,-5.9207,-5.9246,-5.9324,-5.9387,-5.9443,-5.9463,-5.9441,-5.9438,-5.9458,-5.9463,-5.9461,-5.9464,-5.9229,-5.9433,-5.9432,-5.943,-5.9429,-5.9429,-5.893,-5.8986,-5.9027,-5.9092,-5.9124,-5.9165,-5.9219,-5.9236,-5.9293,-5.9357,-5.9351,-5.9427,-5.9465,-5.9538,-5.9563,-5.962,-5.9594,-5.9622,-5.9629,-5.9636,-5.9644,-5.9451,-5.963,-5.963,-5.9629,-5.9629,-5.9629,0,-5.9108,-5.9133,-5.9193,-5.9255,-5.9306,-5.9282,-5.9328,-5.9372,-5.9439,-5.9477,-5.9528,-5.9606,-5.9668,-5.9689,-5.9748,-5.979,-5.9781,-5.9806,-5.9803,-5.9808,-5.9664,-5.9642,-5.9812,-5.9812,-5.9812,-5.9812,-5.9812,-5.9812,-5.9207,-5.9301,-5.9307,-5.9417,-5.9441,-5.9516,-5.9545,-5.9582,-5.9613,-5.9702,-5.9753,-5.9767,-5.9798,-5.986,-5.9915,-5.9919,-5.9942,-5.9972,-5.9972,-5.9837,-5.9818,-5.9801,-5.978,-5.9976,-5.9977,-6.0111,-6.0112,-6.0113]}]]